Location: Holyhead Bay
(53.3667°N, 4.6667°W)
Time: 07:15:56
(UTC+00:00)

ADEOS Rocket - Pass Details

Date: 16 April 2021
Orbit: 859 x 1306 km, 98.7° (Epoch: 12 May)

Event Time Altitude Azimuth Distance (km) Brightness Sun altitude
Rises 01:10:43 0° 119° (ESE) 3,738 5.9 -25.5°
Reaches altitude 10° 01:13:24 10° 109° (ESE) 2,856 5.4 -25.4°
Maximum altitude 01:18:51 30° 52° (NE) 1,907 5.0 -25.2°
Drops below altitude 10° 01:24:46 10° 356° (N) 3,131 6.5 -24.9°
Sets 01:27:51 0° 346° (NNW) 4,159 7.2 -24.8°
